Voltar ao catálogo

KHORS NO. 2

AtivoMilitarSSO
NORAD 57196·PAYLOAD·🇷🇺 Russia
Este nome de satélite ainda não foi confirmado por fontes oficiais.

Lançado Jun 27, 2023 de Vostochny Cosmodrome

Loading…

Próximas Passagens (próximas 24 horas)

TLE

AtualizadoSource: Space-Track

Época: Sep 14, 2026, 12:41 UTC

1 57196U 23091AG  26257.52887228  .00011076  00000-0  33985-3 0  9993
2 57196  97.4999 325.8655 0008824 122.4234 237.7863 15.33887570178213

Acompanhe KHORS NO. 2 em tempo real com AllMySat

Download on the App Store